Location: Bronnegerveen
(52.9548°N, 6.8388°E)
Time: 02:09:23
(UTC+00:00)

Okean 2 Rocket - Pass Details

Date: 15 June 2025
Orbit: 612 x 635 km, 82.5° (Epoch: 06 July)

Event Time Altitude Azimuth Distance (km) Brightness Sun altitude
Rises 00:16:57 0° 352° (N) 2,944 8.0 -13.1°
Reaches altitude 10° 00:19:16 10° 357° (N) 2,029 7.0 -13.1°
Maximum altitude 00:23:40 51° 74° (ENE) 795 3.8 -12.9°
Enters shadow 00:27:51 11° 151° (SSE) 1,947 5.2 -12.8°
